Location: Tel Aviv
(32.0670°N, 34.7670°E)
Time: 02:24:38
(UTC+02:00)

Envisat - Pass Details

Date: 28 November 2021
Orbit: 764 x 766 km, 98.2° (Epoch: 26 January)

Event Time Altitude Azimuth Distance (km) Brightness Sun altitude
Rises 04:38:12 0° 11° (NNE) 3,236 6.2 -21.5°
Reaches altitude 10° 04:40:31 10° 11° (NNE) 2,306 5.5 -21.0°
Maximum altitude 04:45:36 87° 283° (WNW) 770 2.9 -19.9°
Drops below altitude 10° 04:50:40 10° 195° (SSW) 2,292 5.5 -18.9°
Sets 04:52:57 0° 194° (SSW) 3,214 6.2 -18.4°
